Location: Unspecified
(35.6961°N, 0.0000°E)
Time: 23:57:50
(UTC+00:00)

Explorer 11/Cluster Stage 4 - Pass Details

Date: 29 May 2019
Orbit: 467 x 1260 km, 28.8° (Epoch: 17 June)

Event Time Altitude Azimuth Distance (km) Brightness Sun altitude
Rises 04:19:42 0° 265° (W) 3,416 - -5.6°
Exits shadow 04:20:57 - 262° (W) 2,969 9.0 -5.4°
Reaches altitude 10° 04:22:48 10° 254° (WSW) 2,324 8.4 -5.1°
Maximum altitude 04:27:21 28° 197° (SSW) 1,262 7.3 -4.3°
Drops below altitude 10° 04:31:09 10° 138° (SE) 1,919 8.8 -3.6°
Sets 04:33:29 0° 126° (SE) 2,717 9.7 -3.2°
